Weather History for KCDJ - January, 2013

Change the Weather History Date:

Friday, January 4, 2013

  Actual Average (KIRK) Record (KIRK)
Temperature  
Mean Temperature 26 °F 26 °F  
Max Temperature 39 °F 35 °F - ()
Min Temperature 12 °F 17 °F - ()
Degree Days  
Heating Degree Days 40 39  
Month to date heating degree days 156  
Since 1 July heating degree days 2499  
Cooling Degree Days 0 0  
Month to date cooling degree days 0  
Year to date cooling degree days 0  
Moisture  
Dew Point 18 °F    
Average Humidity 78    
Maximum Humidity 96    
Minimum Humidity 49    
Precipitation  
Precipitation 0.00 in 0.04 in - ()
Month to date precipitation 0.14  
Year to date precipitation 0.14  
Sea Level Pressure  
Sea Level Pressure 30.38 in    
Wind  
Wind Speed 4 mph (SSW)    
Max Wind Speed 12 mph    
Max Gust Speed 17 mph    
T = Trace of Precipitation, MM = Missing Value Source: NWS Daily Summary

Daily Weather History Graph

Daily Weather History Graph

Search for Another Location

Airport or City:

Trip Planner

Search our weather history database for the weather conditions in past years. The results will help you decide how hot, cold, wet, or windy it might be!

Date:

Astronomy

Jan. 04, 2013 Rise Set
Actual Time 7:35 AM CST 5:03 PM CST
Civil Twilight 7:05 AM CST 5:33 PM CST
Nautical Twilight 6:31 AM CST 6:07 PM CST
Astronomical Twilight 5:59 AM CST 6:39 PM CST
Moon No Moon Rise 11:19 AM CST (1/4)
Length of Visible Light 10h 27m
Length of Day
9h 27m
Waning Gibbous, 55% of the Moon is Illuminated
Jan 4
Waning Gibbous
Jan 4
Last Quarter
Jan 11
New
Jan 18
First Quarter
Jan 26
Full

Hourly Weather History & Observations

Time (CST) Temp. Windchill Dew Point Humidity Pressure Visibility Wind Dir Wind Speed Gust Speed Precip Events Conditions
12:52 AM 12.0 °F - 10.9 °F 95% 30.45 in - Calm Calm - N/A   Unknown
1:52 AM 14.0 °F - 12.0 °F 92% 30.45 in - Calm Calm - N/A   Unknown
2:52 AM 12.9 °F 5.2 °F 10.9 °F 92% 30.45 in - SSW 4.6 mph - N/A   Unknown
3:52 AM 14.0 °F 6.5 °F 12.0 °F 92% 30.44 in - South 4.6 mph - N/A   Unknown
4:52 AM 12.9 °F 6.9 °F 12.0 °F 96% 30.43 in - South 3.5 mph - N/A   Unknown
5:52 AM 12.9 °F 6.9 °F 10.9 °F 92% 30.43 in - South 3.5 mph - N/A   Unknown
6:52 AM 12.9 °F 6.9 °F 10.9 °F 92% 30.43 in - South 3.5 mph - N/A   Unknown
7:52 AM 15.1 °F 6.4 °F 12.9 °F 91% 30.42 in - South 5.8 mph - N/A   Unknown
8:52 AM 19.9 °F - 17.1 °F 89% 30.42 in - Calm Calm - N/A   Unknown
9:52 AM 25.0 °F 19.3 °F 21.0 °F 85% 30.43 in - South 4.6 mph - N/A   Unknown
10:52 AM 32.0 °F 24.8 °F 23.0 °F 69% 30.42 in - SSW 8.1 mph - N/A   Unknown
11:52 AM 36.0 °F 28.5 °F 21.9 °F 57% 30.40 in - SW 10.4 mph 16.1 mph N/A   Unknown
12:52 PM 37.0 °F 30.4 °F 21.9 °F 54% 30.37 in - SW 9.2 mph - N/A   Unknown
1:52 PM 39.0 °F 33.4 °F 23.0 °F 53% 30.35 in - SW 8.1 mph 16.1 mph N/A   Unknown
2:52 PM 39.9 °F 32.9 °F 21.9 °F 49% 30.33 in - SW 11.5 mph 17.3 mph N/A   Unknown
3:52 PM 39.9 °F 34.5 °F 23.0 °F 51% 30.32 in - SSW 8.1 mph - N/A   Unknown
4:52 PM 37.0 °F 33.3 °F 23.0 °F 57% 30.32 in - South 4.6 mph - N/A   Unknown
5:52 PM 30.9 °F 27.5 °F 23.0 °F 72% 30.33 in - South 3.5 mph - N/A   Unknown
6:52 PM 30.0 °F - 23.0 °F 75% 30.34 in - Calm Calm - N/A   Unknown
7:52 PM 26.1 °F 21.9 °F 21.0 °F 81% 30.33 in - South 3.5 mph - N/A   Unknown
8:52 PM 25.0 °F 19.3 °F 21.0 °F 85% 30.32 in - South 4.6 mph - N/A   Unknown
9:52 PM 25.0 °F - 19.9 °F 81% 30.31 in - Calm Calm - N/A   Unknown
10:52 PM 23.0 °F 17.0 °F 19.9 °F 88% 30.30 in - South 4.6 mph - N/A   Unknown
11:52 PM 28.0 °F 24.2 °F 23.0 °F 81% 30.29 in - SSW 3.5 mph - N/A   Unknown